Home   Weather   Linz   Past weeks
Flag for Austria

Past Weather in Linz, Upper Austria, Austria — Yesterday and Last 2 Weeks

Now
57 °F

Fog.


Feels Like: 56 °F
Forecast: 64 / 45 °F
Wind: 6 mph from East

Location: Linz / Hoersching-Flughafen

Current Time: Oct 23, 2019 at 10:50:07 am

Latest Report: Oct 23, 2019 at 10:20 am


Visibility: 3 mi

Pressure: 30.09 "Hg

Humidity: 94%

Dew Point: 55 °F

Location of LinzLocation

Past Weather in Linz — Graph

°F

Linz Temperature Yesterday

Maximum temperature yesterday: 55 °F (at 12:20 pm)
Minimum temperature yesterday: 46 °F (at 2:20 am)
Average temperature yesterday: 52 °F

High & Low Weather Summary for the Past Weeks

 TemperatureHumidityPressure
High70 °F (Oct 12, 3:50 pm)100% (Oct 8, 10:50 pm)30.24 "Hg (Oct 8, 10:50 pm)
Low37 °F (Oct 12, 6:50 am)45% (Oct 16, 3:50 pm)29.74 "Hg (Oct 15, 4:50 pm)
Average52 °F90%30.02 "Hg
* Reported Oct 8 9:20 am — Oct 23 9:20 am, Linz. Weather by CustomWeather, © 2019

Note: Actual official high and low records may vary slightly from our data, if they occured in-between our weather recording intervals... More about our weather records

Advertising

Linz Weather History for the Previous 24 Hours

Scroll right to see more
 ConditionsComfort  
Time TempWeatherWind HumidityBarometerVisibility
9:20 am
Wed, Oct 23
55 °FFog.3 mph100%30.09 "Hg2 mi
8:50 am55 °FFog.3 mph100%30.09 "Hg2 mi
8:20 am54 °FFog.2 mph100%30.09 "Hg2 mi
7:50 am54 °FFog.1 mph100%30.09 "Hg1 mi
7:20 am54 °FFog.2 mph100%30.09 "Hg2 mi
6:50 am54 °FFog.1 mph100%30.09 "Hg2 mi
6:20 am54 °FFog.2 mph100%30.12 "Hg1 mi
5:50 am54 °FFog.2 mph100%30.12 "Hg1 mi
5:20 am54 °FFog.1 mph100%30.12 "Hg1 mi
4:50 am54 °FFog.1 mph100%30.15 "Hg1 mi
4:20 am54 °FFog.1 mph100%30.15 "Hg1 mi
3:50 am54 °FFog.2 mph100%30.15 "Hg1 mi
3:20 am54 °FFog.2 mph100%30.15 "Hg1 mi
2:50 am54 °FCool.2 mph100%30.18 "Hg1 mi
2:20 am54 °FPassing clouds.1 mph100%30.18 "Hg1 mi
1:50 am54 °FFog.1 mph100%30.18 "Hg1 mi
1:20 am54 °FFog.2 mph100%30.18 "Hg0 mi
12:50 am54 °FFog.2 mph100%30.18 "Hg0 mi
12:20 am54 °FFog.1 mph100%30.18 "Hg0 mi
11:50 pm
Tue, Oct 22
54 °FFog.2 mph100%30.18 "Hg0 mi
11:20 pm54 °FFog.1 mph100%30.18 "Hg1 mi
10:50 pm54 °FFog.2 mph100%30.21 "Hg0 mi
10:20 pm54 °FFog.2 mph100%30.21 "Hg0 mi
9:50 pm54 °FFog.3 mph100%30.21 "Hg1 mi
9:20 pm54 °FFog.3 mph100%30.21 "Hg1 mi
8:50 pm54 °FFog.2 mph100%30.21 "Hg1 mi
8:20 pm54 °FDense fog.1 mph100%30.21 "Hg1 mi
7:50 pm54 °FFog.2 mph100%30.21 "Hg1 mi
7:20 pm54 °FFog.3 mph100%30.21 "Hg2 mi
6:50 pm54 °FFog.2 mph100%30.21 "Hg2 mi
6:20 pm54 °FFog.2 mph100%30.21 "Hg2 mi
5:50 pm54 °FFog.2 mph100%30.21 "Hg2 mi
5:20 pm55 °FFog.3 mph94%30.21 "Hg2 mi
4:50 pm55 °FFog.1 mph94%30.18 "Hg2 mi
4:20 pm55 °FFog.2 mph94%30.18 "Hg3 mi
3:50 pm55 °FFog.3 mph94%30.21 "Hg3 mi
3:20 pm55 °FFog.5 mph94%30.21 "Hg3 mi
2:50 pm55 °FFog.6 mph94%30.21 "Hg2 mi
2:20 pm55 °FFog.6 mph94%30.21 "Hg2 mi
1:50 pm55 °FFog.3 mph100%30.21 "Hg2 mi
1:20 pm55 °FFog.2 mph94%30.21 "Hg2 mi
12:50 pm55 °FFog.3 mph94%30.24 "Hg2 mi
12:20 pm55 °FFog.2 mph94%30.24 "Hg3 mi
11:50 am54 °FFog.2 mph100%30.24 "Hg1 mi
11:20 am54 °FFog.2 mph100%30.24 "Hg1 mi
10:50 am52 °FFog.1 mph100%30.24 "Hg1 mi
10:20 am52 °FFog.1 mph100%30.24 "Hg1 mi
Weather by CustomWeather, © 2019

See weather overview